Notices

What's New in latest Release from April 7th, 2021:

- Updated Glossary, including Speed of Maximum Gust, and Total Hourly Precipitation

- Updated national and regional climate services offices contacts and prices information

- Addition of station inventory lists for 1981-2010, 1971-2000, and 1961-1990 Normals.

If you haven't already, please take our survey and provide feedback about our website: https://eccc.sondage-survey.ca/f/LanguageSelection.aspx?s=442ca660-fcf1-47c0-95a9-59707d6fd709

Hourly Data Report for April 28, 2017

CLYDE RIVER A
NUNAVUT

70°29'09.000" N
68°31'01.000" W
26.50 m
2400804
71090
YCY

Download Data

Hourly Data (April 2017)
Hourly Data Report for April 28, 2017
TIME
LST
Temp Definition
°C
Dew Point Definition
°C
Rel Hum Definition
%
Precip. Amount Definition
mm

Wind Dir Definition
10's deg

Wind Spd Definition
km/h
Visibility Definition
km
Stn Press Definition
kPa
Hmdx Definition


Wind Chill Definition


Weather Definition


00:00 -18.9 -23.3 69 0.0 28 9 16.1 101.11   -25 LegendNANA
01:00 -17.0 -22.9 61 0.0 28 11 16.1 101.16   -24 LegendNANA
02:00 -17.9 -23.3 63 0.0 29 9 16.1 101.21   -24 LegendNANA
03:00 -18.4 -23.5 65 0.0 27 8 16.1 101.24   -24 LegendNANA
04:00 -19.8 -24.6 66 0.0 26 8 16.1 101.30   -26 LegendNANA
05:00 -21.2 -25.0 72 0.0 29 5 16.1 101.31   -26 LegendNANA
06:00 -20.2 -24.3 70 0.0   0 16.1 101.34     LegendNANA
07:00 -18.5 -22.2 73 0.0   0 16.1 101.36     LegendNANA
08:00 -16.7 -20.6 72 0.0 34 17 16.1 101.39   -26 LegendNANA
09:00 -15.6 -18.3 80 0.0 35 15 16.1 101.39   -24 LegendNANA
10:00 -14.1 -18.1 72 0.0 3 13 16.1 101.42   -21 LegendNANA
11:00 -14.0 -17.5 75 0.0 36 4 16.1 101.44   -17 LegendNANA
12:00 -14.1 -17.6 75 0.0 4 8 16.1 101.43   -19 LegendNANA
13:00 -14.2 -17.6 76 0.0 3 8 16.1 101.41   -19 LegendNANA
14:00 -14.0 -17.3 76 0.0 2 8 16.1 101.38   -19 LegendNANA
15:00 -13.9 -17.0 78 0.0 1 8 16.1 101.37   -19 LegendNANA
16:00 -13.3 -15.6 83 0.0 5 8 16.1 101.35   -18 LegendNANA
17:00 -14.0 -16.0 85 0.0 1 8 16.1 101.34   -19 LegendNANA
18:00 -13.8 -16.1 83 0.0 35 13 16.1 101.31   -21 LegendNANA
19:00 -13.7 -16.1 82 0.0 34 13 16.1 101.29   -21 LegendNANA
20:00 -14.1 -16.2 84 0.0 35 18 16.1 101.26   -23 Snow
21:00 -14.0 -15.9 86 0.0 33 17 11.3 101.23   -22 Snow
22:00 -14.1 -16.1 85 0.0 33 11 16.1 101.21   -21 Snow
23:00 -14.5 -16.2 87 0.0 33 5 8.1 101.21   -18 Snow

Notes on Data Quality.

Legend

  • E = Estimated
  • M = Missing
  • NA = Not Available*
  • [empty] = Indicates an unobserved value
Date modified: